Radiation Dose at Monitoring Post of Fukushima Daini Nuclear Power Station
Date,Time,MP-1(microSv/h),MP-2(microSv/h),MP-3(microSv/h),MP-4(microSv/h),MP-5(microSv/h),MP-6(microSv/h),MP-7(microSv/h),Wind Direction,Wind Velocity(m/s),Rain
2024/06/27,00:00,0.144,0.128,0.208,0.195,0.204,0.115,0.076,north,1.3,No
2024/06/27,00:10,0.145,0.128,0.207,0.192,0.203,0.116,0.074,north,1.1,No
2024/06/27,00:20,0.144,0.128,0.207,0.193,0.206,0.114,0.075,northeast,1.0,No
2024/06/27,00:30,0.145,0.130,0.206,0.193,0.204,0.116,0.075,northeast,0.9,No
2024/06/27,00:40,0.144,0.128,0.208,0.194,0.206,0.115,0.075,-,CALM,No
2024/06/27,00:50,0.145,0.129,0.207,0.195,0.204,0.115,0.075,east,1.1,No
2024/06/27,01:00,0.145,0.127,0.207,0.193,0.205,0.116,0.074,east-northeast,1.5,No
2024/06/27,01:10,0.144,0.129,0.207,0.194,0.204,0.115,0.074,northeast,2.1,No
2024/06/27,01:20,0.146,0.128,0.207,0.194,0.205,0.115,0.075,north-northeast,1.1,No
2024/06/27,01:30,0.144,0.129,0.206,0.195,0.205,0.115,0.075,east-northeast,1.4,No
2024/06/27,01:40,0.146,0.129,0.207,0.194,0.204,0.115,0.075,east-northeast,1.1,No
2024/06/27,01:50,0.144,0.129,0.208,0.195,0.207,0.115,0.075,east-northeast,1.5,No
2024/06/27,02:00,0.145,0.128,0.206,0.193,0.204,0.115,0.074,north-northeast,2.6,No
2024/06/27,02:10,0.144,0.128,0.206,0.195,0.206,0.115,0.075,north-northwest,1.7,No
2024/06/27,02:20,0.146,0.129,0.206,0.193,0.204,0.115,0.074,north-northwest,1.2,No
2024/06/27,02:30,0.144,0.129,0.206,0.195,0.206,0.115,0.074,north,1.5,No
2024/06/27,02:40,0.145,0.128,0.207,0.193,0.205,0.116,0.074,-,CALM,No
2024/06/27,02:50,0.145,0.129,0.207,0.194,0.206,0.115,0.075,south-southeast,1.7,No
2024/06/27,03:00,0.145,0.128,0.207,0.193,0.205,0.115,0.075,south-southeast,1.3,No
2024/06/27,03:10,0.144,0.128,0.206,0.195,0.204,0.116,0.075,north-northeast,1.1,No
2024/06/27,03:20,0.144,0.128,0.207,0.192,0.205,0.115,0.074,-,CALM,No
2024/06/27,03:30,0.144,0.128,0.207,0.195,0.205,0.115,0.074,north-northeast,0.6,No
2024/06/27,03:40,0.144,0.128,0.206,0.195,0.205,0.115,0.074,-,CALM,No
2024/06/27,03:50,0.144,0.128,0.207,0.194,0.204,0.116,0.074,-,CALM,No
2024/06/27,04:00,0.144,0.128,0.206,0.193,0.205,0.114,0.075,-,CALM,No
2024/06/27,04:10,0.143,0.128,0.206,0.194,0.204,0.116,0.074,-,CALM,No
2024/06/27,04:20,0.143,0.128,0.206,0.193,0.205,0.115,0.074,-,CALM,No
2024/06/27,04:30,0.143,0.128,0.206,0.195,0.203,0.115,0.074,south-southeast,0.6,No
2024/06/27,04:40,0.144,0.127,0.207,0.192,0.206,0.114,0.074,south-southeast,1.1,No
2024/06/27,04:50,0.144,0.128,0.207,0.194,0.203,0.114,0.075,southeast,1.1,No
2024/06/27,05:00,0.144,0.128,0.206,0.194,0.206,0.114,0.074,southeast,1.4,No
2024/06/27,05:10,0.145,0.127,0.206,0.195,0.203,0.115,0.074,southeast,1.5,No
2024/06/27,05:20,0.144,0.129,0.205,0.193,0.205,0.114,0.075,south-southeast,1.2,No
2024/06/27,05:30,0.145,0.127,0.206,0.194,0.204,0.115,0.075,south-southeast,1.3,No
2024/06/27,05:40,0.144,0.127,0.206,0.194,0.203,0.115,0.074,south-southeast,1.1,No
2024/06/27,05:50,0.145,0.129,0.207,0.195,0.206,0.115,0.074,southeast,0.8,No
2024/06/27,06:00,0.143,0.127,0.205,0.191,0.203,0.115,0.075,south,1.3,No
2024/06/27,06:10,0.144,0.127,0.206,0.195,0.201,0.116,0.074,south-southwest,0.9,No
2024/06/27,06:20,0.144,0.128,0.206,0.194,0.204,0.114,0.074,south,1.3,No
2024/06/27,06:30,0.143,0.128,0.206,0.193,0.206,0.115,0.073,southeast,1.4,No
2024/06/27,06:40,0.145,0.127,0.205,0.193,0.203,0.115,0.073,east-southeast,1.2,No
2024/06/27,06:50,0.144,0.126,0.207,0.193,0.203,0.114,0.074,-,CALM,No
2024/06/27,07:00,0.143,0.127,0.205,0.195,0.205,0.115,0.074,south-southeast,1.0,No
2024/06/27,07:10,0.142,0.128,0.204,0.194,0.204,0.115,0.074,southeast,0.9,No
2024/06/27,07:20,0.141,0.127,0.207,0.191,0.203,0.115,0.073,east-southeast,1.9,No
2024/06/27,07:30,0.144,0.126,0.205,0.191,0.206,0.115,0.073,southeast,2.1,No
2024/06/27,07:40,0.144,0.126,0.204,0.193,0.204,0.114,0.074,southeast,2.1,No
2024/06/27,07:50,0.144,0.126,0.204,0.193,0.202,0.115,0.073,southeast,2.3,No
2024/06/27,08:00,0.143,0.126,0.203,0.193,0.204,0.115,0.073,southeast,1.8,No
2024/06/27,08:10,0.143,0.128,0.203,0.191,0.205,0.115,0.074,southeast,2.7,No
2024/06/27,08:20,0.142,0.130,0.203,0.191,0.203,0.114,0.074,southeast,2.0,No
2024/06/27,08:30,0.142,0.129,0.206,0.195,0.202,0.116,0.073,southeast,2.4,No
2024/06/27,08:40,0.142,0.128,0.208,0.194,0.202,0.115,0.074,southeast,1.9,No
2024/06/27,08:50,0.143,0.127,0.206,0.192,0.206,0.114,0.074,southeast,2.3,No
2024/06/27,09:00,0.146,0.127,0.205,0.192,0.205,0.115,0.073,-,CALM,No
2024/06/27,09:10,0.145,0.129,0.205,0.191,0.205,0.116,0.073,-,CALM,No
2024/06/27,09:20,0.145,0.128,0.205,0.192,0.203,0.115,0.073,-,CALM,No
2024/06/27,09:30,0.143,0.127,0.204,0.192,0.201,0.114,0.072,-,CALM,No
2024/06/27,09:40,0.143,0.128,0.203,0.195,0.202,0.115,0.074,south,1.1,No
2024/06/27,09:50,0.143,0.127,0.204,0.194,0.202,0.115,0.073,south-southwest,1.1,No
2024/06/27,10:00,0.143,0.126,0.205,0.194,0.202,0.115,0.073,south-southeast,2.7,No
2024/06/27,10:10,0.143,0.126,0.204,0.192,0.202,0.115,0.073,south,1.3,No
2024/06/27,10:20,0.144,0.127,0.205,0.193,0.202,0.114,0.074,south-southeast,1.7,No
2024/06/27,10:30,0.143,0.127,0.208,0.192,0.203,0.115,0.073,south,3.3,No
2024/06/27,10:40,0.143,0.125,0.208,0.193,0.203,0.115,0.073,south-southeast,4.8,No
2024/06/27,10:50,0.144,0.126,0.207,0.192,0.203,0.115,0.073,south-southeast,3.2,No
2024/06/27,11:00,0.142,0.128,0.207,0.193,0.205,0.115,0.074,south-southeast,4.9,No
2024/06/27,11:10,0.143,0.127,0.206,0.191,0.207,0.114,0.074,south-southeast,5.1,No
2024/06/27,11:20,0.144,0.128,0.206,0.192,0.205,0.114,0.074,south-southeast,5.6,No
2024/06/27,11:30,0.143,0.127,0.204,0.193,0.204,0.115,0.074,south-southeast,5.1,No
2024/06/27,11:40,0.143,0.127,0.204,0.196,0.203,0.115,0.075,south-southeast,4.8,No
2024/06/27,11:50,0.142,0.129,0.206,0.194,0.203,0.114,0.074,south-southeast,5.1,No
2024/06/27,12:00,0.145,0.129,0.205,0.194,0.206,0.115,0.073,south-southeast,5.6,No
2024/06/27,12:10,0.144,0.128,0.205,0.194,0.206,0.115,0.075,south-southeast,4.6,No
2024/06/27,12:20,0.143,0.129,0.206,0.196,0.203,0.114,0.075,south-southeast,4.8,No
2024/06/27,12:30,0.143,0.128,0.208,0.195,0.202,0.114,0.073,south-southeast,5.0,No
2024/06/27,12:40,0.145,0.128,0.207,0.193,0.207,0.116,0.074,south-southeast,5.4,No
2024/06/27,12:50,0.144,0.127,0.206,0.194,0.206,0.114,0.074,south-southeast,5.4,No
2024/06/27,13:00,0.144,0.129,0.207,0.195,0.203,0.115,0.074,south-southeast,5.4,No
2024/06/27,13:10,0.143,0.128,0.208,0.194,0.202,0.115,0.074,south-southeast,5.8,No
2024/06/27,13:20,0.143,0.127,0.207,0.193,0.204,0.115,0.073,south-southeast,5.6,No
2024/06/27,13:30,0.145,0.127,0.206,0.194,0.205,0.115,0.073,south-southeast,5.5,No
2024/06/27,13:40,0.145,0.129,0.207,0.196,0.204,0.114,0.074,south-southeast,6.1,No
2024/06/27,13:50,0.144,0.129,0.208,0.195,0.203,0.115,0.075,south,5.9,No
2024/06/27,14:00,0.143,0.128,0.207,0.193,0.201,0.114,0.074,south-southeast,7.0,No
2024/06/27,14:10,0.143,0.127,0.205,0.193,0.205,0.113,0.073,south-southeast,7.1,No
2024/06/27,14:20,0.145,0.128,0.206,0.195,0.207,0.114,0.074,south-southeast,6.1,No
2024/06/27,14:30,0.145,0.129,0.208,0.196,0.205,0.115,0.074,south-southeast,6.7,No
2024/06/27,14:40,0.145,0.128,0.208,0.195,0.203,0.115,0.074,south-southeast,6.8,No
2024/06/27,14:50,0.142,0.128,0.206,0.194,0.203,0.116,0.074,south-southeast,6.7,No
2024/06/27,15:00,0.143,0.128,0.206,0.195,0.205,0.116,0.075,south,5.9,No
2024/06/27,15:10,0.145,0.129,0.209,0.194,0.206,0.115,0.074,south-southeast,7.6,No
2024/06/27,15:20,0.145,0.128,0.209,0.192,0.203,0.114,0.075,south-southeast,7.4,No
2024/06/27,15:30,0.144,0.128,0.207,0.193,0.204,0.115,0.074,south-southeast,8.4,No
2024/06/27,15:40,0.143,0.129,0.206,0.196,0.206,0.115,0.075,south-southeast,7.7,No
2024/06/27,15:50,0.145,0.129,0.210,0.195,0.207,0.115,0.074,south-southeast,7.3,No
2024/06/27,16:00,0.146,0.127,0.208,0.195,0.204,0.114,0.074,south-southeast,8.1,No
2024/06/27,16:10,0.144,0.127,0.206,0.194,0.203,0.116,0.074,south,7.4,No
2024/06/27,16:20,0.144,0.129,0.206,0.197,0.203,0.116,0.074,south-southeast,6.6,No
2024/06/27,16:30,0.143,0.129,0.209,0.195,0.203,0.115,0.074,south-southeast,7.9,No
2024/06/27,16:40,0.145,0.127,0.207,0.195,0.207,0.115,0.074,south-southeast,7.0,No
2024/06/27,16:50,0.146,0.128,0.207,0.196,0.206,0.116,0.074,south-southeast,8.1,No
2024/06/27,17:00,0.145,0.129,0.209,0.195,0.205,0.115,0.074,south-southeast,7.3,No
2024/06/27,17:10,0.143,0.128,0.208,0.195,0.206,0.115,0.074,south-southeast,8.6,No
2024/06/27,17:20,0.146,0.129,0.208,0.196,0.207,0.116,0.074,south-southeast,8.9,No
2024/06/27,17:30,0.145,0.129,0.209,0.196,0.205,0.116,0.074,south,8.4,No
2024/06/27,17:40,0.143,0.128,0.207,0.195,0.207,0.115,0.075,south-southeast,8.1,No
2024/06/27,17:50,0.146,0.129,0.208,0.197,0.206,0.115,0.075,south-southeast,6.9,No
2024/06/27,18:00,0.145,0.130,0.207,0.195,0.204,0.115,0.074,south,7.3,No
2024/06/27,18:10,0.144,0.128,0.208,0.194,0.205,0.115,0.075,south-southeast,6.9,No
2024/06/27,18:20,0.145,0.129,0.209,0.198,0.205,0.115,0.074,south,6.5,No
2024/06/27,18:30,0.145,0.129,0.207,0.196,0.204,0.115,0.074,south,5.5,No
2024/06/27,18:40,0.143,0.128,0.208,0.195,0.207,0.116,0.074,south,6.2,No
2024/06/27,18:50,0.145,0.129,0.210,0.197,0.206,0.116,0.074,south,7.0,No
2024/06/27,19:00,0.144,0.127,0.207,0.194,0.204,0.114,0.074,south,6.8,No
2024/06/27,19:10,0.144,0.129,0.209,0.195,0.206,0.116,0.075,south,5.4,No
2024/06/27,19:20,0.145,0.128,0.208,0.196,0.204,0.116,0.073,south,5.3,No
2024/06/27,19:30,0.144,0.129,0.209,0.195,0.206,0.116,0.074,south,4.3,No
2024/06/27,19:40,0.145,0.129,0.209,0.197,0.206,0.115,0.074,south,4.9,No
2024/06/27,19:50,0.145,0.128,0.207,0.195,0.204,0.115,0.074,south,5.6,No
2024/06/27,20:00,0.145,0.129,0.209,0.196,0.207,0.115,0.076,south,5.0,No
2024/06/27,20:10,0.145,0.128,0.207,0.198,0.205,0.116,0.075,south,4.4,No
2024/06/27,20:20,0.144,0.129,0.209,0.195,0.204,0.115,0.075,south,4.4,No
2024/06/27,20:30,0.146,0.129,0.208,0.197,0.207,0.115,0.075,south,4.4,No
2024/06/27,20:40,0.144,0.128,0.208,0.194,0.203,0.115,0.074,south,3.7,No
2024/06/27,20:50,0.144,0.128,0.208,0.196,0.205,0.115,0.075,south,4.5,No
2024/06/27,21:00,0.146,0.129,0.208,0.197,0.205,0.116,0.074,south,5.1,No
2024/06/27,21:10,0.144,0.129,0.209,0.195,0.204,0.116,0.075,south,4.7,No
2024/06/27,21:20,0.145,0.129,0.207,0.196,0.207,0.115,0.075,south,6.0,No
2024/06/27,21:30,0.145,0.129,0.210,0.196,0.204,0.116,0.075,south,6.1,No
2024/06/27,21:40,0.145,0.128,0.208,0.196,0.207,0.116,0.074,south,6.1,No
2024/06/27,21:50,0.145,0.130,0.209,0.197,0.204,0.116,0.074,south,5.8,No
2024/06/27,22:00,0.145,0.128,0.209,0.195,0.205,0.116,0.075,south,4.7,No
2024/06/27,22:10,0.145,0.129,0.208,0.196,0.206,0.116,0.075,south,4.9,No
2024/06/27,22:20,0.145,0.128,0.209,0.195,0.204,0.116,0.074,south,5.1,No
2024/06/27,22:30,0.144,0.129,0.208,0.196,0.206,0.115,0.074,south,4.5,No
2024/06/27,22:40,0.145,0.128,0.210,0.197,0.205,0.116,0.074,south,4.2,No
2024/06/27,22:50,0.145,0.129,0.207,0.195,0.205,0.116,0.075,south,3.8,No
2024/06/27,23:00,0.146,0.128,0.209,0.197,0.207,0.115,0.074,south,3.8,No
2024/06/27,23:10,0.145,0.129,0.208,0.195,0.204,0.116,0.075,south,4.0,No
2024/06/27,23:20,0.145,0.129,0.209,0.196,0.206,0.116,0.075,south,3.6,No
2024/06/27,23:30,0.145,0.129,0.208,0.195,0.205,0.115,0.075,south,4.2,No
2024/06/27,23:40,0.145,0.129,0.210,0.196,0.204,0.116,0.075,south,4.0,No
2024/06/27,23:50,0.146,0.129,0.208,0.196,0.207,0.116,0.074,south,3.6,No
